CAPE
697 1015 568 669 528 670 591 570 516 764 982 1022 1158 1482 1582 1831 1937 2052 1978 1974 1506 1663 2289 2507 2676 2827 2721 2809 3067 3216 3153 3109 3350 3406 3389 3341 3244 3034 2946 2801 2559 2777 2660 2530 2715 3101 3097 2962 2989 3023 2739 2568 2428 2355 2334 2118 2620 2299 2359 2313 2204 1988 2153 1892 1738 1960 1859 1998 1947 1816 1751 1856 1718 1688 1772 1576 1176 1392 1472 1068 1363 1355 1719 1546 1504
1075 1273 831 790 662 674 858 1026 931 1019 992 1406 1984 1896 1792 1860 1988 1910 1962 2212 2159 2180 2284 2482 2749 2730 2772 2973 3127 3226 3230 3315 3394 3461 3258 3159 3040 2936 2812 2809 2577 2620 2707 2674 2739 2878 2976 2896 2903 2780 2620 2596 2410 2319 2456 2197 2463 2281 2300 2206 2393 2466 2531 2511 2342 2069 1837 1804 1856 1700 1836 1798 1802 1662 1679 1651 1440 1260 1304 1169 1235 1162 1380 1621 1678
1164 1426 1400 1075 911 741 1288 1302 966 1450 1425 1477 1496 1816 1940 2052 2056 2148 2486 2424 2459 2533 2352 2422 2592 2750 2952 2920 2890 3036 3101 3258 3230 3211 3139 3068 3034 2952 2790 2714 2735 2880 2884 2814 2647 2838 2752 2925 2852 2666 2630 2733 2523 2375 2524 2457 2407 2328 2583 2614 2351 2513 2630 2668 2782 2338 1757 1703 1372 1585 1960 1781 1786 1766 1710 1692 1426 1219 1208 1453 1471 1787 1500 1614 1550
786 1137 1493 1270 1241 1358 1615 1473 1714 1790 1967 1812 1888 1718 1986 2108 2014 2509 2590 2588 2574 2243 2264 2349 2535 2570 2759 2886 2926 2998 3088 3088 3122 3196 3128 3010 2928 2849 2796 2766 2728 2724 2775 2891 2986 2822 2848 2828 2659 2790 2704 2741 2662 2602 2538 2820 2475 2556 2368 2401 2182 2472 2514 2438 2479 2467 2164 1948 1877 1743 1570 1407 1639 1705 1553 1534 1491 1426 1511 1857 1489 1532 1703 1646 1888
1395 1478 1144 1293 1213 1344 1441 1557 1698 1791 1744 1768 2019 2224 2054 1952 2094 2325 2472 2276 2120 2168 2124 2249 2330 2518 2652 2876 2969 2971 2866 2992 2964 3065 2995 2962 2871 2804 2764 2711 2718 2698 2785 2850 2864 2922 2892 2947 2682 2678 2708 2702 2843 2738 2598 2146 2613 2453 2637 2736 2662 2534 2375 2468 2467 2486 2568 2202 1984 1538 1581 1464 1535 1660 1548 1463 1317 1370 1268 1514 1506 1622 1380 1688 1896
1634 1560 1456 1324 1176 1235 1405 1604 1725 1967 1818 1962 2228 2201 2444 2119 2047 2214 2312 1767 2242 2117 2077 2152 2292 2488 2682 2765 2892 2924 2852 2775 2936 2891 2752 2800 2830 2818 2783 2798 2715 2663 2630 2664 2790 2744 2838 2750 2722 2845 2697 2451 2260 2682 2499 2426 2368 2307 2571 2633 2622 2512 2405 2437 2499 2428 2463 2414 2193 1822 1590 1328 1325 1525 1517 1382 1456 1358 1068 1774 1628 1276 1438 1578 1793
1390 1524 1581 1627 1393 1564 1296 1596 1680 1917 1858 1821 2000 2279 2110 2114 2164 2455 2444 2240 2204 2201 2175 2202 2376 2557 2731 2849 2898 2936 2924 2968 2905 2733 2672 2822 2858 2688 2654 2821 2827 2726 2798 2820 2676 2690 2631 2740 2944 2936 2957 2728 2500 2604 2675 2467 2296 2278 2217 2493 2618 2572 2450 2421 2494 2565 2313 2945 2448 1352 1091 1287 1043 1177 1619 1482 1550 1598 1445 1488 1233 1947 1766 1716 1560
1511 1435 1409 1408 1476 1484 1401 1608 1542 2212 1981 2190 1837 2222 2089 2073 2201 2310 2380 2458 2315 2258 2315 2236 2515 2618 2600 2717 2762 2790 2914 2959 2903 2579 2565 2680 2599 2724 2649 2539 2314 2444 2716 2500 2459 2687 2974 2986 2960 2923 2984 3006 2732 2597 2698 2695 2818 2506 2334 2157 2270 2560 2487 2479 2512 2678 2816 3004 2332 1462 1190 1634 1364 1030 1758 1621 1648 1680 1587 1478 1395 1738 1635 1386 1633
1359 1325 1184 1347 1422 1706 1559 1658 1976 2286 2356 2206 2490 2365 2214 2257 2273 2465 2509 2459 2370 2385 2429 2391 2584 2585 2636 2754 2873 2887 2823 2754 2662 2488 2618 2426 2544 2765 2661 2411 2306 2542 2670 2528 2507 2736 2889 2792 2803 2757 2754 2778 2762 2869 2896 2806 2802 2814 2446 2211 2196 2469 2566 2683 2599 2556 2628 2972 2558 1666 1552 808 1248 1069 1806 1733 1780 1756 1510 1292 1613 1778 1706 1474 1427
1138 1179 1401 1120 1141 1866 1603 1920 2296 2378 2470 2644 2626 2471 2244 2288 2305 2380 2597 2548 2436 2495 2476 2586 2584 2538 2557 2780 2950 2784 2536 2467 2176 2285 2432 2376 2576 2873 2737 2454 2422 2528 2410 2379 2506 2699 2708 2658 2584 2726 2806 2788 2585 2619 2561 2700 2770 2796 2862 2608 2488 2621 2440 2617 2706 2596 2156 2876 2366 2283 1255 1959 1458 925 1816 1760 1748 1621 1802 1153 1178 1133 1374 1450 1350
1196 1598 2206 1388 1605 2365 2365 2265 2472 2592 2611 2612 2561 2474 2380 2401 2458 2534 2532 2667 2532 2651 2660 2684 2584 2409 2460 2690 2788 2702 2630 2440 2332 2283 2378 2505 2714 2802 2809 2546 2564 2584 2374 2506 2616 2681 2620 2701 2745 2711 2763 2743 2698 2538 2368 2454 2534 2728 2820 2938 2736 2728 2558 2388 2534 2394 2478 2178 2579 1884 754 2258 1143 1071 1993 1831 1758 1629 1408 1720 1498 1350 1679 1650 1684
1640 1794 1742 2092 2654 2362 2443 2452 2274 2728 2754 2735 2672 2618 2572 2527 2426 2386 2404 2654 2765 2759 2706 2624 2538 2349 2503 2710 2693 2637 2614 2294 2233 2280 2515 2618 2795 2673 2531 2376 2356 2378 2533 2490 2657 2544 2658 2553 2554 2497 2447 2538 2551 2476 2519 2202 2417 2662 2836 2827 2845 3001 2708 2492 2431 2079 2290 2214 1843 1390 1456 1622 1204 1212 1852 2026 1770 1592 1473 1626 1790 1711 1306 1489 1051
1526 1516 2006 2112 1976 2357 2372 2393 2372 2556 2694 2804 2699 2692 2737 2493 2389 2318 2398 2600 2672 2635 2638 2608 2452 2406 2490 2470 2520 2517 2498 2436 2379 2317 2616 2822 2870 2748 2649 2410 2246 2376 2599 3048 3045 2960 2764 2635 2348 2136 2276 2329 2317 2289 2457 2199 2288 2426 2514 2514 2767 2863 2887 2738 2443 2094 1966 2155 1790 1854 1370 1552 1382 1703 1668 1828 1924 1723 1681 1514 1386 1374 1445 1259 980
1783 1940 1701 1712 2115 2560 2266 2385 2554 2468 2584 2692 2700 2768 2698 2477 2624 2503 2340 2417 2517 2526 2451 2393 2426 2386 2389 2313 2419 2474 2521 2543 2394 2636 2680 2877 2837 2790 2424 2312 2374 2742 3042 2954 2676 2615 2595 2354 2318 2387 2322 2322 2260 1989 2198 2332 2227 2336 2311 2313 2383 2388 2708 2749 2518 2252 2124 1917 1844 1048 1810 2320 1493 1872 1648 1822 1942 2048 1924 1811 1474 1426 1397 1238 1319
1746 1790 1987 2241 2280 2314 2479 2423 2665 2522 2283 2545 2677 2652 2561 2594 2554 2587 2330 2385 2444 2437 2408 2302 2370 2505 2457 2309 2460 2540 2702 2647 2821 2904 2762 2824 2755 2400 2491 2548 2887 3015 2955 2688 2411 2284 2374 2294 2298 2295 2374 2347 2386 2099 2014 2221 2252 2092 2213 2325 2557 2169 2499 2854 2318 1784 1790 1708 1738 1447 1652 2127 2198 1824 1622 1564 1834 1889 1761 1799 1645 1445 1412 1328 1228
1783 1970 2235 2345 2244 2694 2582 2628 2493 2384 2424 2714 2711 2762 2592 2583 2574 2428 2337 2292 2338 2362 2238 2312 2507 2488 2566 2561 2538 2618 2832 2954 2918 2987 2869 2748 2658 2600 2710 2821 2816 2754 2848 2619 2325 2223 2274 2223 2350 2383 2422 2388 2394 2424 2429 2078 2044 2110 2109 2226 2408 2192 2559 2897 2734 1950 1348 2092 2268 1917 1998 1660 2394 2099 1792 1582 1757 2112 1974 1870 1853 1576 1481 1349 1326
2113 2259 2181 2350 2456 2301 2348 2558 2546 2438 2566 2790 2745 2746 2751 2693 2695 2481 2327 2325 2344 2291 2334 2516 2590 2533 2556 2509 2536 2726 2884 2786 2842 2935 2998 2784 2816 2644 2684 2720 2142 2277 2836 2892 2601 2450 2426 2296 2456 2321 2348 2364 2431 2524 2578 2248 2167 2075 2204 2380 2505 2395 2603 2638 2455 1979 1729 1941 2284 1896 2044 1910 2369 2112 1975 1642 1616 2017 2068 1928 1866 1755 1493 1290 1276
2261 2451 2688 2691 2405 2398 2327 2515 2547 2863 2676 2775 2890 2863 2931 2852 2693 2366 2387 2327 2377 2451 2550 2627 2608 2710 2574 2606 2759 2847 2823 2841 2836 2920 2824 2858 2565 2552 2671 2307 2174 2343 2889 2840 2538 2521 2373 2483 2403 2368 2378 2420 2588 2738 2613 2568 2478 2400 2324 2279 2516 2341 2475 2855 2343 1708 2062 2189 1919 2270 2574 2446 2266 2400 2130 1800 1662 1902 2144 2084 1902 1831 1633 1342 1295
2086 2412 2492 2816 2106 1556 1908 2715 2882 2758 2699 2711 2669 2993 3116 2976 2701 2388 2442 2476 2546 2548 2631 2762 2709 2850 2938 2844 2954 2779 2808 2964 3062 2843 2652 2824 2900 2529 2892 2163 2266 2349 2705 2958 2641 2540 2550 2571 2366 2450 2421 2538 2550 2777 2844 2780 2800 2688 2547 2421 2489 2599 2479 2628 2231 2603 2412 1692 1969 2150 2694 2084 2200 2208 2117 1880 1727 1633 1963 2024 2026 1860 1768 1402 1440
2213 2079 2150 2234 2274 2314 2256 2353 2737 2466 2682 2480 2580 2853 3059 2890 2677 2484 2537 2564 2617 2719 2738 2864 2892 2837 2951 3030 2935 2767 2820 2874 3135 2925 2694 2655 2676 2772 2278 2098 2232 2816 2909 3005 2978 2929 2878 2691 2625 2404 2544 2561 2627 2832 2750 2752 2469 2397 2397 2366 2608 2759 2940 3137 2257 2668 2116 2545 2142 2610 2352 2623 2639 2342 2329 1998 1782 1638 1874 1946 2052 1907 1750 1463 1466
2090 2287 2465 2262 2020 2119 2276 2271 2578 2533 2430 2309 2491 2551 2917 2830 2634 2602 2672 2768 2834 2794 2853 2988 3123 3119 2970 2845 2960 2762 2344 2755 3217 2422 3184 2674 3292 2486 2336 1644 2165 2822 2704 2854 2869 2679 2346 2858 2834 2604 2341 2738 2701 2888 3058 2596 2262 2180 2302 2324 2310 2614 2961 2049 1997 1945 2113 2966 2783 2518 2295 2357 2644 2519 2625 2213 1946 1766 1807 1930 1811 1896 1817 1714 1582
2291 2425 2694 2562 2457 2610 2310 2728 2695 2340 2312 2428 2317 2386 2979 2828 2762 2886 2920 3041 2910 2901 3061 2599 2824 2339 2708 2702 2557 2431 3004 2646 3279 2846 2687 2654 2576 2932 2087 1688 2185 2880 2946 2526 2844 2294 1570 1958 2432 2819 2801 2924 3127 3024 3464 2760 2432 2301 2323 2754 2982 3079 3146 2248 2109 1935 2844 3002 2646 2753 2539 2626 2878 2649 2641 2465 2124 1824 1824 1916 1892 1714 1702 1772 1732
2300 2342 2530 2154 2688 2414 2590 2604 2722 2427 2252 2421 2241 2564 2857 2910 2767 2638 2542 2625 2714 2816 2552 2427 2366 2743 2468 2506 2514 2811 1978 2296 3056 2694 2626 2314 2726 2815 2426 1717 2204 2401 2575 2596 2772 1923 1443 1533 1608 1873 2512 2554 3324 3097 2123 2675 3198 2664 2490 2686 3007 2104 2212 2460 2376 1800 1402 1705 3284 2724 2835 2996 2864 2864 2719 2564 2304 1952 1783 1974 1922 1898 1702 1728 1590
1831 1938 1968 2061 2032 1984 2391 2304 2154 2340 2454 2390 2468 2629 2438 2941 2818 2511 2564 2522 2626 2576 2552 2276 2244 2714 3268 2609 2811 3213 3042 2667 2230 3060 2396 886 696 2230 2478 2513 2396 2560 2842 2916 2888 2288 1626 1927 2057 2159 2169 2694 2833 1814 1589 1833 1772 1970 1953 1870 1980 2141 2197 1990 1808 1565 1537 2287 2423 2431 2393 2480 2533 2762 2870 2545 2381 1714 1779 1931 2018 1985 1846 1758 1681
1913 1890 1880 1930 1784 1724 1856 2058 2242 2269 2418 2426 2340 2770 2154 2806 3157 2405 2572 2158 2201 2185 2224 2523 2684 2856 3032 2924 2454 2806 2489 2336 2832 2671 1952 1453 2200 2546 2976 2518 3131 3343 2925 3019 2859 2527 2082 2298 2612 2171 2434 1992 1310 1741 1752 1561 1404 1708 1586 1676 1833 2042 1946 1858 1860 1734 2087 2278 2372 2485 2213 2458 2516 2516 2789 2594 2564 2277 1605 1613 2082 2065 1963 1888 1786
1904 1909 1893 2014 1948 1845 1909 2155 2384 2334 2378 2624 2350 2430 2716 2346 2814 2420 2474 2162 2236 2176 2164 2270 2319 2765 2818 2650 2318 2192 2325 2261 1957 2172 1863 1720 1734 1814 2903 2980 3030 2578 2330 2496 2219 1973 1568 1340 1861 1864 1931 1681 1651 1904 1869 1723 1451 1503 1241 1352 1642 1866 1741 1828 1978 2178 2030 2436 2272 2234 2046 2434 2461 2364 2558 2584 2714 2456 2152 2004 1932 1920 2149 1962 1895
1970 2060 1871 2031 2005 1939 1951 2260 2504 2602 2530 2571 2278 2715 2742 2375 2025 1816 2205 2309 2380 2474 2262 2178 2205 2479 2536 2496 2324 2228 2321 2200 2372 2342 2336 2176 2024 1634 1774 1896 2151 2163 2452 1970 1567 1792 1789 1674 1806 2074 2134 1977 1801 1774 1844 1772 1597 1032 752 730 765 725 670 658 916 1588 2012 2232 2149 2184 2334 2162 2332 2416 2470 2668 2429 2500 2342 2224 2231 2031 1644 2041 1952
1820 2198 2070 1919 1886 1898 1972 2168 2330 2444 2443 2805 2469 2807 2293 2215 2181 2164 2041 2306 2112 2265 2233 2220 2456 3044 2836 2612 2448 2344 2244 2044 1860 1994 2216 2168 1999 1806 1864 1724 1506 1664 1958 1716 1407 1688 1754 1832 1922 2053 2051 2103 1959 1966 1473 762 633 686 664 520 506 564 454 438 373 552 378 634 2802 2240 2219 2199 2226 2157 2363 2556 2783 2352 2396 2083 2198 2198 1700 1644 2047
1778 2116 2010 1869 1774 1904 2082 2132 2378 2415 2271 2439 2291 2544 2202 2214 2252 2382 1978 2232 2101 2103 2090 2133 2498 2903 3152 2736 2962 2365 2119 1930 1864 1703 2017 1939 1946 2116 1945 1780 1796 1722 1811 1594 1582 1820 1904 1813 1912 1986 1972 2127 1970 1306 1131 603 448 262 218 231 188 131 212 488 336 444 470 371 478 2504 2301 2610 2146 2336 2492 2542 2478 2569 2439 2285 2259 2283 2306 2364 2238
1618 2027 2013 2017 1870 1941 2054 2284 2352 2514 2281 2137 2152 2122 2449 2512 2578 2539 2330 2140 2205 2122 2365 2292 2398 2394 2542 2939 2504 2597 2417 2044 2067 2003 2014 2253 2367 2337 2250 1846 1794 2041 1864 1664 1206 1532 1782 1837 1924 2106 1883 1872 1553 1120 871 439 240 104 240 431 296 263 148 229 336 322 453 380 356 3201 2408 2310 2352 2305 2433 2498 2632 2297 2388 2279 2254 2227 2075 2359 2122
1526 1552 1741 1929 1929 1854 1936 2043 2254 2416 2429 2099 2118 2172 2514 2930 2801 3029 2925 2744 2244 2145 2396 2282 2092 2052 2012 3183 3804 2806 2661 2348 2067 2134 2264 2314 2359 2334 2247 2188 2054 1710 1590 1474 1360 1638 1968 1994 2206 2173 2027 1821 1870 896 758 295 222 185 238 202 395 185 136 153 205 111 213 350 406 1172 2620 2451 2101 2672 2478 2406 2526 2522 2226 2347 2489 2200 2201 2139 2294
1548 1602 1722 1689 1727 1758 1734 1875 2112 2332 2430 1988 1912 2090 2307 3117 3206 2866 2904 2950 2986 2636 2345 2218 2087 2176 2362 3259 4398 3410 2848 2660 2928 3176 2723 2441 2348 2165 2134 2163 2054 1564 1802 1664 2130 1900 2171 2064 2406 2704 1989 1793 1335 550 420 274 219 128 184 189 165 138 146 75 21 33 58 20 113 426 925 2430 2499 2222 2496 2586 2574 2623 2471 2423 2474 2558 2329 2221 2245
1596 1695 1957 1753 1629 1551 1541 1770 1925 2331 2447 1914 1840 2046 2288 2892 2887 2985 2873 2933 3255 3015 2662 2425 2530 2445 2855 3512 4098 4280 3313 3228 3584 3266 2966 2779 2378 2654 2249 2020 1973 1793 1578 2521 2792 2526 2208 2233 2001 2299 2174 1302 598 484 419 159 112 295 273 180 123 322 362 124 131 118 43 66 106 439 334 811 2698 2546 2034 2406 2810 2662 2826 2674 2560 2420 2536 2289 2273
1656 1799 1836 1777 1630 1574 1287 1644 1742 2146 2586 2022 1803 1992 2283 2808 2839 2846 2786 3118 3072 3037 2848 2791 2757 2717 2697 3614 3956 4236 3458 3150 3265 3759 3486 2762 2278 2350 2516 2072 2060 2507 2591 2880 3027 2053 2115 1902 1861 1742 1578 524 482 459 333 384 390 340 296 250 234 360 275 324 85 68 18 48 313 121 239 363 608 2347 2620 2252 2232 2722 2803 2722 2558 2384 2426 2459 2197
1612 1812 1766 1949 1790 1740 1388 1799 1822 1993 2530 2112 1802 2007 2140 2227 2832 2798 2797 3136 3135 3080 2791 2699 2692 2593 2488 2916 3884 4304 3318 3303 3686 4460 3729 3189 2542 2142 2233 2438 2422 1862 2332 2020 2708 2203 1794 1512 1467 1642 1129 475 438 395 354 342 394 492 464 376 242 334 324 296 193 48 259 396 277 291 295 428 436 480 1496 2652 2301 2138 2612 2833 2802 2630 2475 2362 2233
1531 1557 1740 1813 1725 1604 1661 1771 1794 2017 2424 2401 2086 2001 1924 1897 1770 1940 2211 2924 2738 2747 2842 2623 2432 2366 2316 2416 3320 4017 4769 4762 4301 4825 3728 3288 2914 2010 2269 2210 2166 3308 2009 2056 3140 2053 1826 1451 1515 962 758 616 564 486 345 156 442 431 456 338 406 348 231 333 102 172 68 75 439 372 450 595 681 760 1020 367 1787 2219 2287 2850 2745 2783 2645 2591 2461
1607 1557 1716 1863 1910 1734 1827 1543 1712 2153 2310 2524 2434 2255 2181 2074 1994 2042 2157 2810 2872 2424 2462 2531 2474 2377 2402 2306 2760 4071 4253 5217 4925 4826 4178 3841 2794 2505 1880 2538 2438 2881 2684 2328 2909 2066 1362 1325 1723 920 716 750 548 454 174 313 392 334 357 337 248 318 352 304 170 162 378 482 268 336 373 788 1139 950 1977 570 529 2113 2232 2404 2819 2560 2346 2470 2546
1593 1693 1869 1988 2113 1967 1975 1968 1704 2022 2423 2591 2584 2473 2455 2328 2153 2083 2288 2631 2767 2461 2599 2764 2789 2626 2563 2596 3066 3925 4517 4962 5002 4830 4340 3622 3297 3214 2946 2477 1901 2400 2378 1890 1731 1908 1552 1262 1052 686 526 688 616 362 133 340 394 401 272 173 470 473 418 293 381 308 384 442 403 8 313 328 350 1333 1690 1889 1459 1042 1697 2092 2214 2377 2359 2113 2338
1554 1650 2103 2285 2439 2297 2152 2332 2021 1896 2045 2552 2713 2669 2229 2492 2190 2157 2123 2513 2930 2597 2536 2814 2935 3060 3096 3123 3653 4480 4116 4582 4679 4475 4058 3447 3075 3084 2848 2418 1962 2170 3106 1981 2097 1796 1532 836 818 753 701 739 693 574 310 344 333 464 458 304 568 625 491 409 349 375 317 53 5 0 21 206 325 678 576 807 1526 2046 2278 1976 2059 2080 2203 2372 2318
1634 1867 2224 2580 2834 2657 2378 2736 2618 1929 1894 2352 2496 2486 2100 2052 2274 2139 2095 2321 2680 2633 2802 2986 3225 3257 3202 3551 4308 4656 4461 4396 4503 4160 3911 3376 3081 3016 2663 2868 2706 2353 1918 1679 1557 1186 1067 902 734 862 834 808 813 487 215 67 121 236 372 458 584 600 490 565 448 407 344 74 46 0 14 94 158 214 157 396 431 576 933 1226 2209 2217 2063 2441 2308
1831 2094 2417 2647 2947 2738 2516 2518 2809 2390 1876 2068 2334 2256 1974 2007 2017 1957 2063 2280 3430 2916 2928 2601 2648 2572 2682 3324 4292 4294 4624 4648 4213 4166 3848 3562 3373 3164 3138 3401 2961 2135 1541 1540 1001 978 1177 672 741 677 595 760 428 226 108 131 440 652 588 530 538 351 580 410 374 247 70 2 7 5 4 10 14 14 158 75 264 483 637 756 743 944 1432 2116 2045
1922 2068 2366 2708 2948 2876 2614 2579 2738 2740 2181 2180 2731 2595 2301 2141 2231 2371 1956 1889 2569 3119 3203 2782 2364 2419 2946 3676 4531 4101 4292 4638 4277 4104 4175 3948 3587 3209 3558 3280 2516 1808 1384 1107 1003 757 640 499 634 407 630 60 202 44 105 329 545 658 206 389 266 494 546 295 400 24 6 8 7 12 6 0 0 0 0 38 112 232 325 612 856 1099 1296 1279 1205
1848 2104 2384 2666 2908 2936 2728 2689 2684 2745 2579 2165 2804 3390 2996 2430 2154 2426 2097 1852 1846 2539 2860 3085 3201 2942 3147 4016 4252 4390 4766 4368 4425 3809 3942 3613 3668 3394 3300 3355 2020 1217 1248 1042 989 875 854 389 510 208 233 249 118 253 407 495 612 254 228 26 407 319 688 674 120 58 8 4 3 2 0 0 0 0 0 0 0 60 98 344 742 876 1029 959 1014
1936 2082 2301 2509 2740 3030 2931 2765 2764 2724 2772 2679 2617 2963 3238 3028 2800 3083 2571 2260 1988 2234 2782 3536 3550 3474 3094 3398 4144 4621 4689 3948 3532 3881 2752 2696 2156 1799 1448 1738 1582 1180 1166 1091 744 595 501 406 278 288 379 166 84 343 335 508 280 340 409 616 484 144 63 574 357 96 6 3 0 0 0 0 0 0 0 0 0 0 45 46 500 397 584 627 731
1721 1943 2080 2278 2507 2790 2912 2748 2900 2790 2848 2936 2957 3080 3083 3258 3676 3628 3160 3209 2686 2524 2733 3031 3145 3438 3034 3149 3969 4302 4340 3078 2606 2372 1768 1720 1692 1770 1686 1433 1398 1266 1129 912 534 309 326 400 470 602 588 199 83 30 128 124 340 388 413 527 217 113 456 320 12 69 37 7 3 0 0 0 0 0 0 0 0 0 0 2 35 110 165 227 354
1669 1839 1958 2054 2366 2618 2911 2991 2933 2936 2857 3012 3182 3262 3159 3560 3696 4246 3656 3294 2896 3155 2924 2956 2624 2440 2250 1532 2276 2777 2496 2390 2026 1880 1751 1556 1781 1900 1680 1482 1454 1371 1093 634 294 344 483 527 266 390 291 425 290 145 8 52 100 296 545 382 320 94 218 283 73 694 145 6 13 8 4 0 0 0 0 0 0 0 0 0 0 2 0 23 15
2064 1893 2141 2122 2338 2643 2903 3100 3328 3289 3218 3095 3169 3372 3315 3304 3524 3878 3188 2656 2610 2412 2712 2290 1775 1790 1669 1529 1685 2019 2234 2078 1860 1935 1794 1444 1540 1764 1660 1478 1219 1002 906 953 595 376 148 353 271 277 316 473 437 319 66 3 197 45 88 150 294 415 235 111 428 256 39 245 33 0 0 0 0 0 0 0 0 0 0 0 0 0 0 0 0
2000 2224 2312 2270 2397 2744 2896 3205 3354 3342 3140 3224 3276 3419 3574 3505 3403 3374 2897 2525 2167 2254 2340 2442 2052 1713 1466 1502 1436 1524 2234 2388 1622 1920 1738 1340 1340 1706 1780 1405 971 718 640 702 460 251 179 312 506 370 509 617 594 353 116 136 13 200 216 272 289 326 346 162 117 88 131 24 326 10 0 0 0 0 0 0 0 0 0 0 0 0 0 0 0
1840 2225 2418 2426 2455 2583 2932 3246 3370 3195 3242 3347 3453 3506 3703 3638 3492 3446 3292 2869 2571 2287 1861 1919 2089 1997 1726 2152 2012 1723 2241 2365 2090 1932 1920 1757 1600 1712 1808 1449 1189 899 556 339 171 226 384 457 564 678 604 529 383 302 332 264 76 35 270 432 154 331 233 31 123 56 1 6 19 29 14 4 1 0 0 0 0 0 0 0 0 0 0 0 0
1768 2146 2391 2357 2347 2688 2974 3306 3432 3436 3388 3462 3603 3610 3763 3851 3546 3324 3020 2981 2817 2595 1904 1854 2133 2393 2310 2390 2580 2396 2080 2286 2124 1955 2081 2038 1946 1694 1647 1436 1212 582 352 180 134 180 260 420 345 346 361 238 261 296 243 189 145 164 228 353 368 122 22 0 4 2 18 9 0 0 0 0 12 22 6 4 3 0 0 0 0 0 0 0 0
1718 1777 2231 2191 2398 2706 3047 3419 3566 3708 3673 3714 3714 3709 3666 3782 3606 3439 3231 3060 3042 2946 2715 2316 2490 2592 2830 2558 2525 2722 2359 2244 1758 1611 1738 1924 1895 1714 1404 1378 1136 661 295 171 286 147 102 135 139 202 243 238 245 240 150 162 193 311 180 125 130 1 47 4 7 30 10 1 0 0 0 6 0 0 8 4 8 3 0 0 0 0 0 0 0
Wind_Speed
9 6 7 3 2 4 8 8 1 4 9 6 5 4 7 8 8 8 8 7 7 7 7 6 6 7 8 9 9 9 9 8 8 9 9 9 8 7 8 8 10 11 10 11 9 9 8 7 7 6 5 5 4 5 7 7 5 3 4 3 1 1 2 2 1 2 3 5 6 6 5 6 6 6 5 5 3 2 3 3 1 4 6 6 10
4 5 6 4 5 6 8 5 2 3 4 3 4 7 8 9 10 9 7 6 6 6 6 6 6 7 7 8 8 8 7 7 8 8 8 7 7 7 8 8 10 10 10 9 8 8 8 7 6 6 6 5 5 6 6 8 7 5 4 4 3 3 3 3 2 1 2 3 5 5 7 6 6 7 6 5 4 3 3 2 3 1 3 5 7
3 3 4 3 4 3 2 2 1 1 5 7 8 10 9 8 8 6 4 5 5 5 4 5 6 6 6 6 7 7 7 7 8 8 7 7 7 7 7 7 9 9 8 8 7 8 8 7 7 7 7 6 6 6 6 7 8 6 4 3 3 4 4 4 2 1 3 3 3 5 6 7 6 6 7 6 4 3 5 5 5 7 3 2 6
2 2 3 4 3 2 2 3 5 6 8 9 9 9 7 5 4 3 3 4 5 4 4 4 5 5 5 6 6 7 7 8 7 7 7 7 7 7 6 7 7 7 6 7 7 7 8 8 7 8 8 7 6 7 6 6 7 7 6 4 2 1 3 3 4 4 5 7 7 5 4 4 5 7 6 6 5 5 6 6 6 5 3 2 6
2 3 3 3 3 1 2 5 5 6 6 6 4 3 3 4 4 4 3 4 4 3 3 4 4 4 5 5 6 7 8 8 7 7 7 7 6 6 6 6 6 5 6 6 6 7 8 8 8 8 8 8 8 7 7 6 6 7 6 6 4 2 2 4 4 6 7 9 8 7 8 3 5 7 7 6 6 6 7 7 7 6 4 4 6
3 3 4 3 3 3 3 3 3 3 4 4 3 3 3 4 5 4 4 5 4 3 2 3 4 4 4 5 6 8 8 7 7 7 7 7 6 6 6 6 6 4 5 5 6 7 8 8 8 8 9 9 9 9 8 7 6 5 6 6 6 4 1 3 6 6 9 9 10 8 10 6 6 5 7 7 7 7 7 7 8 8 3 7 5
4 2 3 3 3 4 4 4 4 4 4 4 4 5 5 5 6 5 5 5 4 3 3 3 3 4 5 5 7 8 8 8 8 7 7 7 7 7 6 6 5 4 5 6 6 7 7 7 7 7 8 9 10 10 9 8 7 6 5 5 6 5 3 2 5 8 8 8 7 2 2 4 6 6 8 8 8 8 8 7 8 8 7 7 4
3 4 3 3 4 7 8 7 5 4 4 4 4 4 5 6 6 6 6 5 4 4 4 3 4 5 5 6 7 8 8 8 8 7 7 7 8 7 7 6 5 4 6 6 7 6 6 6 6 7 8 9 10 11 10 9 8 8 7 6 6 6 5 3 4 6 9 5 6 2 2 4 7 7 9 9 10 9 9 9 9 10 9 7 8
4 4 5 5 6 9 8 8 6 5 5 5 5 6 6 6 7 7 6 6 5 5 4 4 5 5 5 6 7 8 9 8 8 7 7 7 8 8 7 6 4 5 7 7 7 6 5 6 6 8 9 10 11 11 11 10 9 8 7 7 7 7 8 8 6 7 6 5 3 1 1 5 5 8 10 10 10 11 10 11 10 12 10 11 8
4 5 10 6 7 9 10 8 6 6 5 5 5 6 6 7 7 7 7 6 6 5 5 5 6 5 5 6 7 8 8 8 8 8 7 7 7 7 6 5 4 5 7 7 6 6 6 7 8 7 9 10 10 11 10 10 10 8 6 5 5 7 9 10 11 7 6 5 1 1 2 5 4 6 11 10 10 11 13 11 8 10 10 10 10
7 6 5 7 10 7 7 9 8 7 7 5 7 7 7 7 7 7 7 6 6 6 6 6 5 5 6 7 7 8 8 9 9 8 7 6 7 7 6 5 5 6 8 7 6 7 7 9 8 8 9 9 8 8 10 9 9 8 6 4 4 5 9 10 9 8 8 6 5 7 0 4 4 6 10 10 9 9 12 14 13 12 13 12 13
6 6 7 6 9 8 8 9 10 9 8 7 8 8 7 7 6 6 6 5 6 6 6 6 5 5 6 7 7 8 8 9 9 8 7 6 7 7 6 5 5 8 9 8 8 9 10 8 7 8 9 9 8 7 7 9 9 9 7 5 3 3 8 12 10 9 7 8 3 4 9 3 5 8 10 10 9 9 10 13 13 13 13 12 13
8 6 7 8 9 10 11 10 11 9 8 8 9 9 7 6 6 6 6 5 5 6 6 5 5 5 6 6 7 7 8 9 9 8 7 7 7 7 7 6 6 8 9 10 11 11 10 9 7 8 8 8 8 7 7 7 9 8 8 7 4 3 6 13 8 7 9 12 9 10 5 1 4 10 10 10 9 9 9 10 12 13 14 12 13
8 7 8 9 8 12 14 12 10 10 8 9 8 8 7 5 5 5 5 5 5 6 6 5 5 5 6 6 6 7 8 8 9 9 8 6 6 6 6 5 4 6 8 9 8 9 9 8 7 6 7 7 7 8 7 6 6 7 7 7 6 3 6 7 9 9 10 9 11 5 6 5 5 9 10 11 11 10 10 9 11 13 13 12 13
10 11 9 8 9 11 13 11 9 9 8 7 7 6 6 5 5 4 5 5 5 5 6 5 6 6 5 5 6 6 7 8 9 9 8 6 4 3 3 2 3 4 5 6 4 5 5 4 4 5 5 6 6 7 6 6 5 6 6 5 6 6 6 6 9 12 11 9 2 2 3 5 10 10 9 10 11 10 11 11 10 12 13 12 12
10 10 10 10 11 10 8 8 7 7 7 6 5 5 5 5 5 5 5 5 6 6 6 6 6 6 5 5 5 6 6 7 7 8 7 5 3 1 1 2 2 2 2 5 4 3 2 0 2 4 5 6 6 4 4 5 6 5 6 6 5 6 6 7 10 8 7 3 7 6 4 6 11 9 9 9 9 10 11 12 11 10 12 12 11
9 9 10 11 12 9 6 5 4 7 6 6 6 6 5 6 6 6 7 7 7 7 7 7 7 6 5 5 5 6 5 6 6 7 8 6 3 2 1 1 1 1 0 2 3 4 3 4 3 4 5 5 5 4 4 3 3 3 5 5 4 4 5 5 11 9 0 5 10 7 6 5 10 9 9 9 8 9 9 10 11 11 10 11 12
8 9 10 12 10 8 6 5 5 5 5 7 7 7 7 8 8 7 7 8 9 9 8 8 8 7 7 6 6 6 6 6 7 9 8 7 6 6 5 3 1 2 3 4 4 3 5 6 5 5 5 5 6 5 3 3 2 2 2 2 1 3 4 3 11 10 7 9 9 8 6 13 12 10 9 10 9 8 7 9 10 11 10 10 10
7 9 10 10 9 7 7 5 6 6 7 7 7 7 9 9 9 8 9 10 10 10 9 10 10 10 8 8 8 8 8 8 9 10 9 9 8 9 8 6 4 5 8 7 8 9 8 8 7 7 7 7 8 7 4 3 4 5 4 5 4 2 1 6 5 7 9 11 8 8 9 12 10 11 10 10 10 9 8 7 9 10 9 11 10
8 10 8 7 5 6 6 5 6 7 8 8 8 8 9 10 10 10 10 11 11 11 11 11 12 11 10 9 10 10 10 11 12 12 12 12 11 12 10 10 8 9 11 11 12 13 12 11 11 11 11 12 12 11 9 7 5 5 5 7 7 7 1 5 5 8 8 7 9 9 13 13 12 11 10 11 10 10 10 8 8 9 9 11 11
7 8 6 6 7 7 6 4 6 8 9 8 8 9 8 11 10 11 11 12 12 12 12 13 13 13 12 12 12 12 10 10 13 12 13 14 13 13 13 13 12 12 12 13 14 14 13 14 15 16 17 17 17 17 15 12 10 10 9 11 9 7 4 2 3 11 4 4 8 10 12 14 12 11 10 12 12 11 12 12 10 9 9 10 11
6 5 5 5 5 5 4 4 6 8 8 7 7 8 8 12 11 11 12 12 13 14 14 14 15 13 14 13 13 10 8 9 11 12 13 13 13 14 15 15 15 15 14 15 15 16 16 15 17 19 20 22 22 19 19 18 16 15 14 15 9 9 10 3 3 12 6 7 7 9 11 13 12 12 11 11 13 12 13 13 12 11 10 9 10
5 4 3 5 4 3 4 5 6 8 8 8 8 9 10 11 11 11 10 13 13 15 15 16 14 14 15 14 14 10 9 8 11 14 11 10 13 19 17 17 17 18 18 16 17 18 19 19 19 20 22 22 21 18 16 18 17 21 18 14 12 8 6 7 1 7 6 3 4 9 12 13 12 12 13 12 12 14 14 14 14 12 11 9 9
4 3 3 2 3 3 4 6 6 7 7 8 9 9 10 11 11 11 10 11 12 13 14 15 15 15 15 15 12 14 11 12 13 13 16 16 17 18 19 17 18 18 20 18 18 23 21 23 23 22 22 20 20 21 16 16 15 15 15 14 10 9 9 7 4 6 13 7 6 14 13 12 13 12 12 12 12 12 13 15 14 13 13 11 10
3 2 2 3 3 5 5 6 6 7 8 8 9 9 10 11 11 11 11 11 12 12 13 14 14 15 15 14 14 10 12 13 10 13 15 15 13 16 15 15 16 17 21 18 17 20 20 20 21 21 20 22 19 16 17 16 17 16 15 14 13 11 11 8 7 6 11 10 10 16 14 13 11 10 12 13 12 12 12 14 14 14 14 14 13
2 3 3 3 5 5 6 5 7 7 9 8 8 9 10 11 12 11 11 12 12 12 13 13 14 14 14 14 11 12 12 13 11 13 15 14 15 16 13 15 19 16 17 16 21 20 17 18 16 17 18 18 17 17 17 17 17 17 15 16 15 13 12 10 8 5 6 12 12 15 14 13 10 10 10 12 13 14 14 13 13 14 15 15 14
4 4 4 5 5 6 7 6 6 7 9 8 8 8 11 11 10 12 11 12 12 13 14 13 13 12 13 13 12 11 12 13 12 13 14 14 16 17 14 18 18 14 18 19 20 17 17 16 17 17 17 17 17 17 17 17 16 17 16 15 16 15 14 12 10 7 7 10 12 15 14 13 11 9 8 10 12 12 14 15 14 13 15 15 15
6 4 4 5 5 7 7 7 6 8 8 8 9 9 10 11 10 9 11 10 12 13 13 11 10 10 11 12 13 13 12 13 12 13 13 14 15 15 14 17 14 20 16 14 15 14 13 15 16 14 15 15 15 16 15 14 16 16 17 16 14 15 13 13 13 11 10 9 13 15 13 13 12 10 10 9 10 11 12 14 14 14 14 15 15
5 4 5 6 5 6 7 8 7 9 8 9 10 10 9 9 8 9 9 8 11 11 11 10 10 10 10 12 12 13 13 13 12 12 12 12 12 13 15 15 13 13 12 15 13 13 14 14 13 13 13 13 13 12 12 13 15 13 9 11 11 12 13 11 11 9 11 9 10 14 15 13 12 11 10 10 10 12 12 13 13 12 14 15 16
5 4 5 6 6 6 8 8 9 9 10 11 10 10 9 9 8 8 8 7 10 10 9 10 10 10 10 11 12 12 12 12 11 11 11 12 12 13 14 14 14 13 14 14 14 13 14 13 13 13 12 12 11 10 11 12 12 8 10 8 11 10 8 9 8 9 9 9 9 14 17 13 12 11 10 10 10 12 13 15 15 13 12 14 16
3 6 4 5 5 7 8 8 10 10 10 12 11 10 9 9 9 8 7 8 8 9 9 11 11 10 9 6 9 11 11 12 12 10 11 11 12 13 14 12 13 15 14 14 14 14 13 14 13 13 12 12 11 10 12 12 10 11 7 9 9 9 8 8 7 10 14 10 8 9 16 19 16 14 13 12 12 12 13 14 17 16 14 13 15
3 5 4 5 5 8 8 9 10 9 11 12 10 10 9 9 9 9 8 8 7 9 9 10 10 9 7 7 8 10 11 11 10 9 11 10 11 12 12 13 12 12 12 13 12 11 12 12 12 11 11 12 11 12 11 11 10 8 7 12 7 8 7 nan nan nan nan nan 7 8 10 15 18 17 16 15 14 16 14 15 15 15 15 14 14
4 4 5 4 6 7 7 8 9 9 11 12 10 9 9 9 9 9 8 7 7 8 9 9 9 8 7 8 7 8 9 9 8 9 10 10 10 10 12 12 12 12 11 9 11 11 12 14 14 13 12 10 11 10 10 9 6 6 11 7 8 8 8 8 9 9 nan nan 7 8 6 9 15 18 18 17 17 16 17 17 17 17 16 15 14
4 3 6 4 4 4 4 5 8 9 10 10 9 9 8 8 8 8 7 7 7 8 9 9 8 8 8 8 8 8 8 8 8 8 8 10 10 10 10 9 10 10 10 12 12 13 14 10 8 11 10 11 9 9 8 9 8 8 7 6 9 7 7 10 nan nan nan nan 3 3 7 7 9 12 14 19 18 18 17 18 19 19 18 17 15
4 2 4 4 5 3 3 3 6 8 9 10 9 9 8 7 7 6 7 7 7 8 8 8 8 8 8 7 7 7 8 8 8 7 7 7 9 6 9 7 1 7 9 7 11 10 10 10 13 9 9 10 10 7 8 9 9 9 9 8 8 7 7 7 9 nan 13 9 10 5 3 2 2 4 11 14 18 20 18 19 19 20 19 18 15
4 3 2 3 4 4 3 5 7 8 8 9 9 9 8 6 6 6 7 7 7 7 7 8 8 8 8 7 7 7 7 7 8 7 7 8 8 9 2 7 12 8 9 9 11 9 9 8 10 11 12 10 8 8 7 7 7 8 8 9 9 8 8 7 6 9 nan nan 7 8 7 5 4 2 1 4 13 15 19 17 17 19 19 18 17
3 2 1 2 3 4 3 5 7 8 8 9 9 9 8 7 7 6 7 7 7 7 6 7 7 7 7 7 6 7 8 8 8 9 8 9 8 7 11 3 5 7 5 10 11 12 13 14 13 12 10 9 9 8 7 7 8 7 9 8 8 8 7 6 7 7 10 9 9 12 12 11 8 5 4 3 3 13 15 16 16 16 17 17 16
2 2 1 2 3 3 3 4 3 7 7 8 9 9 9 7 6 6 6 7 7 6 5 6 7 7 8 7 5 7 8 8 8 8 9 8 7 7 7 7 5 9 10 7 9 10 15 13 13 14 11 10 9 7 7 7 7 7 7 7 8 8 7 9 8 8 10 11 14 nan 13 11 11 8 6 7 5 9 12 15 16 16 16 15 14
1 3 2 3 2 2 3 4 3 5 7 7 9 9 9 7 5 6 5 6 6 5 5 5 6 6 7 6 6 6 7 8 8 8 8 8 9 9 9 12 10 7 9 8 11 14 13 14 12 11 12 11 10 8 8 8 8 10 11 9 11 9 9 8 9 8 6 nan nan nan nan 11 11 11 11 9 8 8 8 11 11 12 13 16 15
3 4 5 5 4 4 4 5 4 5 6 8 8 7 7 7 6 5 5 4 5 4 4 4 4 4 5 5 5 5 6 7 8 8 9 8 9 9 11 12 13 11 9 7 10 12 14 14 12 11 11 11 13 10 9 nan 8 8 9 10 12 13 10 10 10 10 10 nan nan nan nan nan 13 9 10 9 9 9 8 6 8 13 12 15 15
6 6 7 7 7 6 5 6 6 5 5 7 8 7 7 6 5 6 5 4 3 4 4 4 4 4 4 4 5 6 7 7 8 9 9 10 10 10 11 12 14 15 14 9 10 13 15 13 13 12 10 10 10 12 11 8 7 8 12 10 15 12 15 13 12 13 nan nan nan nan nan nan nan nan 10 nan 10 10 9 8 7 9 14 16 12
6 7 8 8 8 7 7 6 7 7 7 7 7 7 6 6 5 4 3 3 3 3 3 3 4 3 4 5 6 6 8 10 10 11 11 11 11 12 13 14 15 15 16 14 17 17 17 15 13 12 14 nan 9 nan 10 8 9 9 12 12 12 16 11 13 15 nan nan nan nan nan nan nan nan nan nan nan 11 11 10 10 9 9 9 10 14
7 7 8 9 8 7 6 7 6 7 7 7 7 6 5 4 3 2 2 2 2 2 1 1 2 3 5 7 6 7 9 10 12 12 13 13 13 13 15 17 18 17 18 18 17 17 17 15 13 12 12 15 12 11 11 9 7 9 12 nan 11 12 15 10 11 nan nan nan nan nan nan nan nan nan nan nan nan nan nan 10 10 10 10 9 11
7 8 8 9 7 6 7 6 6 6 7 7 7 6 4 4 3 1 1 2 1 2 2 3 4 4 6 7 9 10 11 12 14 15 14 16 16 15 18 19 18 19 18 17 16 17 18 15 14 15 13 9 nan 17 15 14 10 9 10 10 13 11 nan 15 16 nan nan nan nan nan nan nan nan nan nan nan nan nan nan nan 11 11 11 11 11
9 9 9 9 7 8 7 7 6 6 6 7 7 5 4 4 3 2 0 1 2 4 5 6 6 7 7 10 11 13 14 14 17 17 16 17 18 18 18 19 20 19 18 18 17 16 17 16 16 16 14 11 nan nan 15 15 14 12 11 11 11 12 11 10 nan nan nan nan nan nan nan nan nan nan nan nan nan nan nan nan nan 14 14 13 13
10 10 10 11 10 9 8 8 6 6 5 7 7 6 4 4 5 5 4 4 5 7 8 8 9 10 10 12 14 15 17 17 18 19 20 20 20 19 18 19 19 19 17 15 17 17 15 13 17 15 16 15 12 12 nan nan 15 15 12 13 14 nan 11 11 nan 14 9 nan nan nan nan nan nan nan nan nan nan nan nan nan nan nan nan nan nan
11 11 11 11 12 10 10 9 8 6 5 6 6 6 5 4 4 4 5 5 6 8 9 10 10 13 14 15 18 19 20 19 21 21 20 19 18 17 17 17 17 17 17 16 16 15 16 16 15 16 15 16 16 13 nan nan 19 nan nan 14 14 13 15 12 12 12 nan 13 nan nan nan nan nan nan nan nan nan nan nan nan nan nan nan nan nan
11 12 12 12 13 12 12 12 10 8 6 7 6 7 6 6 6 5 6 7 7 9 12 13 14 14 16 18 19 20 22 18 18 20 17 17 16 16 16 15 16 15 16 16 14 13 15 17 16 15 16 17 16 15 14 14 nan 16 19 16 17 19 16 14 16 nan 14 nan 15 nan nan nan nan nan nan nan nan nan nan nan nan nan nan nan nan
12 12 12 13 13 13 13 13 12 10 9 8 9 8 8 8 8 8 8 9 9 10 13 15 17 18 17 18 18 18 19 17 14 16 15 15 17 16 17 15 15 15 16 14 14 15 15 15 15 15 15 16 16 17 16 15 nan nan 22 19 17 16 19 nan 23 nan nan nan nan nan nan nan nan nan nan nan nan nan nan nan nan nan nan nan nan
13 13 13 13 14 14 14 14 13 12 11 11 11 10 11 10 10 10 11 11 12 13 14 18 19 19 17 16 16 16 16 15 15 14 16 14 16 16 16 16 15 15 14 13 14 15 16 16 15 14 15 14 18 18 18 18 17 16 21 22 18 20 nan nan nan nan nan nan nan nan nan nan nan nan nan nan nan nan nan nan nan nan nan nan nan
13 15 15 14 14 14 14 14 14 13 12 13 13 12 12 12 12 13 13 13 14 15 17 17 19 18 16 15 15 16 15 15 13 15 14 15 15 16 16 16 15 14 14 15 13 14 16 18 16 17 16 16 19 19 18 20 19 20 20 21 20 nan nan nan nan nan nan nan nan nan nan nan nan nan nan nan nan nan nan nan nan nan nan nan nan
Wind_Direction
120 147 110 82 71 112 71 73 301 351 22 8 340 308 276 279 285 283 291 280 260 248 235 223 215 208 212 214 220 224 227 230 233 240 242 248 255 260 262 262 262 262 261 260 264 269 270 266 256 258 258 252 247 239 251 256 262 280 296 319 15 3 309 276 147 323 330 325 310 311 308 307 301 286 279 264 239 211 209 279 51 174 191 216 238
82 94 92 64 21 36 71 130 175 139 184 245 251 266 274 289 292 290 279 258 244 235 222 218 219 215 217 218 225 231 232 233 233 237 240 244 251 254 256 256 255 257 259 263 270 277 274 263 253 251 250 248 243 245 243 249 257 258 280 324 354 4 9 342 323 39 351 337 327 307 316 306 292 291 283 270 250 206 181 195 358 15 180 225 244
75 60 70 39 30 60 139 170 257 229 248 250 272 284 289 294 294 283 266 248 237 227 223 219 221 220 218 223 230 234 232 230 230 231 235 242 246 249 254 257 258 258 265 266 273 271 267 260 245 237 234 240 234 236 241 244 256 248 266 297 352 21 26 23 345 33 51 10 328 323 329 308 295 289 282 277 260 221 209 241 237 215 247 287 251
23 61 47 16 30 96 172 231 236 239 247 251 279 290 293 302 298 283 267 248 248 246 233 226 225 225 223 227 233 236 235 231 229 232 236 245 250 256 261 265 269 270 269 275 273 272 267 253 237 226 222 222 220 227 232 238 242 254 249 248 274 1 49 44 36 34 58 54 336 27 34 333 312 291 287 281 269 246 238 234 259 259 282 254 260
341 348 5 25 355 3 284 272 273 277 280 293 295 296 312 324 308 304 289 276 275 268 248 235 235 233 232 232 236 240 240 238 239 244 249 252 259 265 268 272 278 285 284 281 274 265 258 246 234 223 214 209 206 214 225 221 222 235 246 243 237 246 89 95 74 58 64 75 60 36 62 319 320 299 293 287 275 262 265 256 241 239 230 263 244
342 339 347 350 348 336 331 305 309 328 332 339 334 343 5 327 314 307 304 299 295 281 267 250 244 241 238 238 241 244 246 248 249 255 262 264 271 273 277 278 284 289 286 277 268 258 248 239 231 225 215 209 208 212 217 223 223 221 239 244 246 231 201 89 94 81 73 85 89 45 358 3 312 315 295 290 283 268 261 269 276 280 305 257 239
329 54 14 355 15 358 16 13 3 1 344 337 342 349 336 321 314 303 307 308 306 308 291 270 260 248 240 244 248 252 255 259 260 263 268 271 273 277 277 281 288 290 273 261 254 247 244 239 230 227 216 214 216 219 217 226 218 208 223 237 243 233 202 161 89 89 93 95 98 51 335 316 314 303 303 292 280 266 256 259 273 274 255 249 257
10 78 49 23 37 5 19 22 2 348 341 343 337 342 327 320 315 308 315 327 331 324 303 296 269 253 247 252 259 264 268 269 274 275 272 272 270 273 274 277 282 277 264 251 244 242 243 243 228 221 222 220 219 221 218 220 232 214 198 204 215 217 198 175 116 103 110 86 51 57 22 305 305 300 301 288 279 270 264 258 261 269 263 245 236
15 45 46 26 6 350 5 3 0 340 336 342 340 338 332 323 321 323 327 332 333 320 308 292 272 268 268 268 272 274 273 275 277 273 267 266 270 273 279 281 289 275 265 256 245 239 238 243 234 226 225 221 219 220 216 215 221 232 217 199 199 200 196 182 160 126 105 92 107 29 48 321 321 304 304 294 279 271 264 257 259 263 258 257 263
6 50 56 17 5 346 359 355 351 338 342 347 344 345 337 328 329 333 330 331 328 320 306 284 279 282 280 276 271 273 272 272 273 270 268 270 275 280 288 300 299 284 268 262 260 252 233 234 230 221 223 221 215 214 215 209 218 220 225 219 210 193 192 184 166 130 110 95 157 156 158 138 306 304 311 302 288 271 257 267 255 241 254 255 248
355 31 38 2 341 341 346 354 348 347 348 351 354 344 341 335 332 332 330 329 326 311 290 282 284 285 280 276 272 270 272 270 269 273 275 277 281 286 292 298 294 280 273 275 269 262 249 235 226 218 216 218 217 211 212 216 212 212 220 222 213 194 177 183 171 159 135 157 196 182 78 81 318 308 322 313 304 280 270 273 270 271 267 265 272
350 7 7 357 329 343 350 355 353 347 346 350 351 347 345 342 333 327 332 327 312 293 285 285 288 283 276 271 271 272 274 277 278 283 287 283 283 289 294 292 284 269 269 269 262 256 250 243 229 213 205 206 204 208 200 216 213 209 216 217 216 179 173 173 179 166 160 152 219 357 74 339 321 307 319 315 312 305 284 280 276 277 268 267 273
331 352 349 352 356 344 348 351 354 347 345 349 350 349 352 347 333 332 328 320 305 297 294 291 288 280 275 275 277 279 278 279 283 286 288 286 289 297 298 291 278 275 274 268 259 255 247 234 213 198 196 196 205 206 199 202 219 209 208 211 215 201 161 182 193 176 191 181 196 139 184 175 290 318 322 316 314 313 302 296 298 287 279 277 272
324 351 356 353 358 345 346 349 354 354 352 348 350 353 350 342 332 331 331 328 317 309 302 300 297 291 289 293 287 285 281 283 290 291 290 295 296 301 304 292 284 293 290 276 259 248 242 235 227 202 184 188 197 207 201 197 211 218 202 207 212 191 170 189 215 208 217 206 192 181 224 111 322 326 327 319 320 320 320 314 310 302 296 283 276
337 346 343 346 350 352 341 347 352 359 352 343 349 353 344 338 335 347 341 346 330 313 315 316 310 307 310 304 296 293 295 297 300 300 306 313 322 306 295 293 292 329 322 292 274 248 244 238 230 210 195 189 194 208 200 204 213 208 207 197 204 200 189 220 233 225 232 263 291 249 106 294 304 326 329 326 324 329 330 324 322 316 308 302 288
331 327 332 343 348 346 356 353 352 351 349 340 346 353 352 351 356 4 5 359 343 340 337 332 332 334 328 319 320 320 321 322 320 328 339 355 8 338 280 278 303 350 318 303 326 334 355 223 195 172 183 189 177 189 203 214 219 225 219 214 205 221 211 221 249 253 243 286 280 243 205 273 302 310 323 325 326 326 332 332 328 323 317 311 304
316 328 336 338 341 351 358 17 356 346 350 354 354 2 7 11 21 20 17 6 360 358 358 353 357 359 0 357 357 0 354 354 358 2 10 21 40 65 66 275 259 204 169 321 4 6 46 77 89 121 141 153 149 163 188 206 215 215 223 236 223 223 228 230 265 261 131 283 256 277 255 267 295 304 313 318 325 325 330 335 331 329 323 317 311
321 331 334 339 344 358 1 8 3 18 9 12 10 12 14 25 29 22 19 17 12 14 15 15 17 20 24 22 18 18 16 13 15 15 18 21 36 47 65 95 103 111 96 61 65 67 50 70 78 88 105 114 115 133 176 154 117 126 151 199 188 220 247 261 282 319 345 279 280 288 273 259 293 301 309 314 317 323 328 333 331 331 325 317 313
330 333 337 343 349 359 359 7 24 27 21 41 34 20 19 29 31 28 27 26 25 27 28 29 30 33 33 33 29 25 26 25 17 20 29 31 27 45 60 78 84 80 88 65 60 70 72 66 74 73 78 83 95 111 120 100 113 105 111 90 97 133 122 278 295 280 269 278 302 294 284 291 296 303 303 313 318 320 325 333 333 331 327 320 311
330 332 333 341 350 2 9 27 42 35 40 43 35 26 29 33 38 37 35 34 34 34 35 38 39 39 39 37 39 39 33 32 26 28 33 37 44 67 62 77 80 76 81 83 69 67 68 69 67 65 66 70 72 73 78 76 75 92 88 83 75 86 40 317 305 278 284 301 297 284 291 297 295 300 310 313 318 319 314 322 333 330 322 317 313
314 322 322 340 360 1 16 45 46 40 43 37 43 38 32 35 41 41 40 38 39 38 40 43 45 44 42 43 47 56 50 43 36 44 31 49 39 53 63 72 76 77 71 78 79 76 72 66 60 63 62 63 62 62 62 58 49 55 64 73 66 60 58 331 285 252 239 256 280 286 297 297 298 300 305 313 318 321 315 315 317 326 323 317 322
308 306 325 358 8 8 33 50 54 38 43 52 53 52 40 41 41 41 47 41 42 42 45 53 51 52 51 49 60 58 65 45 55 53 46 48 45 47 57 63 68 67 71 73 79 76 72 66 61 59 61 59 63 57 52 52 50 48 56 67 66 49 41 84 294 318 304 258 278 296 308 302 305 303 306 307 318 320 316 313 311 311 318 323 323
309 312 359 2 40 32 61 58 41 43 38 46 53 49 33 47 41 40 45 42 42 45 51 54 54 59 53 57 54 49 38 64 59 60 62 58 47 40 48 57 59 64 66 71 65 68 68 65 63 60 60 63 63 67 54 49 48 50 53 58 48 65 97 68 64 288 256 266 301 318 319 315 312 313 310 313 315 316 314 311 309 306 307 317 320
331 350 24 51 54 92 69 54 41 41 48 59 52 48 42 44 44 42 45 46 43 49 53 55 55 58 57 61 57 52 46 42 35 45 63 59 51 41 46 50 58 62 68 63 61 64 57 60 61 58 58 59 60 54 66 67 63 59 64 65 69 77 78 82 81 278 316 17 332 327 321 316 314 315 316 320 321 316 312 310 308 306 304 309 315
23 17 64 78 69 82 69 50 43 46 54 60 56 57 45 47 46 44 47 51 49 50 53 54 57 58 59 61 63 56 60 60 39 54 63 59 43 46 46 52 56 54 61 63 60 63 55 63 56 56 59 60 62 71 68 68 66 66 65 66 70 75 74 76 65 11 323 10 334 330 326 321 318 317 319 317 321 320 315 307 310 306 304 304 308
76 90 73 74 78 85 67 54 51 51 55 60 54 51 47 49 48 47 45 53 52 53 56 55 57 58 61 63 65 61 62 72 50 54 55 55 59 59 33 50 51 52 62 57 52 63 68 68 80 78 77 81 78 70 73 71 70 66 63 64 68 66 69 71 66 28 2 339 332 332 326 322 329 326 321 324 322 321 318 312 307 305 302 301 302
105 114 92 93 86 75 69 59 54 54 50 56 60 57 57 54 45 49 47 55 58 58 62 60 62 56 64 74 73 68 63 63 59 52 56 57 57 56 36 36 48 50 50 59 61 66 65 75 78 79 82 83 83 79 77 78 80 80 73 69 64 64 63 61 66 57 43 342 339 338 332 330 332 335 331 334 331 325 322 315 310 307 304 301 299
115 115 92 91 83 62 58 49 53 52 53 56 59 60 58 55 49 47 55 55 61 63 65 67 68 62 67 73 80 84 75 65 58 56 54 54 54 60 48 54 34 44 38 65 70 64 68 70 71 73 77 78 80 80 76 77 76 72 71 64 61 63 59 57 58 57 55 36 351 349 343 343 344 345 341 337 338 333 328 318 311 309 310 307 304
100 98 96 85 62 64 46 50 48 51 55 56 60 64 56 55 45 46 53 59 70 67 70 70 67 69 59 72 72 77 74 74 66 63 57 54 55 52 58 49 47 58 55 49 57 60 62 64 67 68 70 71 70 75 76 72 68 65 71 79 77 70 58 53 57 55 60 55 25 353 353 356 0 359 353 345 343 341 331 326 313 320 321 321 317
86 88 91 88 66 56 47 47 54 53 55 54 61 61 58 57 51 51 55 58 72 76 68 77 72 68 65 57 66 72 76 75 66 61 59 54 52 48 47 49 45 40 47 49 48 48 55 56 59 60 65 65 67 68 69 70 66 65 57 61 70 69 67 60 50 47 44 36 25 354 353 356 0 11 4 354 354 351 337 326 327 331 337 334 327
83 79 85 90 77 58 50 48 53 49 57 58 54 56 57 58 52 56 55 61 64 75 78 78 77 68 69 53 54 62 68 67 69 64 59 53 47 46 46 44 38 37 36 39 39 43 43 45 45 52 53 54 55 53 56 61 51 52 43 50 52 55 53 48 52 43 28 17 9 353 355 352 2 7 10 13 4 5 357 346 342 343 344 338 332
81 87 97 87 63 54 45 42 44 43 53 53 47 53 52 55 57 59 58 56 60 72 75 78 76 81 74 47 49 56 57 62 67 61 57 55 53 49 45 37 40 37 26 36 35 35 34 35 31 37 44 43 41 44 37 47 42 37 45 44 28 38 42 nan nan nan nan nan 17 18 360 356 358 5 11 12 19 13 13 10 3 359 358 347 338
121 87 99 74 54 51 47 34 39 33 44 47 38 49 48 51 54 62 59 56 59 67 75 70 71 68 63 60 49 43 49 53 49 52 49 49 53 45 45 39 41 35 28 19 19 25 30 20 20 14 29 36 40 35 31 32 37 16 34 29 22 27 25 30 20 20 nan nan 18 350 11 354 355 2 6 12 15 20 21 22 22 17 10 6 354
134 140 96 77 95 84 70 44 38 29 35 44 41 43 47 53 60 64 67 59 60 62 65 71 64 61 55 41 46 42 46 42 38 39 43 49 44 38 41 39 23 29 26 12 5 12 27 17 18 14 11 27 27 25 21 15 6 10 26 14 26 6 8 33 nan nan nan nan 325 6 13 6 355 359 0 5 9 12 16 23 24 24 20 16 9
134 118 72 76 81 73 67 44 31 25 22 39 33 40 44 60 65 67 66 59 64 62 63 63 57 55 58 30 35 38 37 35 30 30 40 56 58 58 38 8 272 58 21 20 14 356 28 1 4 356 1 10 17 14 15 4 353 360 7 2 12 2 3 16 335 nan 360 338 353 339 312 24 13 5 352 353 1 2 5 11 17 20 19 19 12
100 112 65 74 60 67 26 38 5 18 14 26 25 29 36 49 69 58 66 63 76 73 68 66 59 47 47 45 21 33 22 20 33 32 43 51 46 37 35 6 347 345 19 20 358 0 341 10 352 353 359 356 351 7 4 353 337 358 349 357 356 346 356 346 336 360 nan nan 310 324 330 327 340 8 162 4 346 352 355 359 9 11 14 11 9
66 99 67 30 42 47 17 40 2 2 7 12 18 12 21 33 57 63 70 76 78 71 64 63 66 63 57 53 19 27 35 26 31 35 38 43 48 26 28 333 336 358 343 10 7 356 331 360 336 350 353 336 352 5 346 337 344 341 0 358 337 320 355 327 339 308 301 321 336 337 320 323 324 321 1 1 334 324 345 352 356 3 8 8 3
23 44 12 352 19 20 3 27 11 350 356 359 6 5 7 21 38 59 65 77 75 78 65 64 67 70 72 62 43 26 32 27 26 26 25 32 33 27 27 331 333 5 1 359 7 337 343 333 345 342 333 326 342 337 333 326 322 335 336 354 315 324 332 331 324 320 331 334 320 nan 328 319 316 316 313 312 349 329 336 347 353 353 354 355 354
336 357 330 306 327 345 335 347 4 348 344 353 351 2 1 4 28 42 51 64 84 79 76 74 73 76 74 61 33 26 29 22 14 12 12 9 7 8 360 343 350 357 336 338 344 350 333 339 329 318 318 331 328 331 323 328 338 341 348 344 318 333 333 322 313 319 320 nan nan nan nan 310 306 315 314 320 322 317 319 326 340 343 341 339 339
341 330 324 316 321 326 331 313 342 348 337 338 343 348 351 354 8 28 41 54 71 69 66 74 71 74 65 44 14 11 11 4 3 354 349 356 352 346 347 333 337 323 313 336 352 323 329 322 324 314 325 329 325 328 330 nan 336 326 331 334 338 330 329 320 326 333 340 nan nan nan nan nan 299 302 303 304 307 309 314 309 317 302 307 322 336
342 333 328 332 331 328 327 331 323 341 336 333 337 340 343 346 7 27 33 33 51 57 63 60 59 58 37 19 0 355 346 347 346 343 343 343 339 336 328 319 312 309 294 333 332 310 297 305 308 316 319 322 327 329 330 328 327 323 325 347 324 338 335 337 343 344 nan nan nan nan nan nan nan nan 296 nan 302 301 308 304 300 298 311 324 320
336 340 340 343 341 344 337 328 316 328 336 336 328 335 342 342 348 22 36 32 35 51 45 45 44 29 346 352 340 346 338 337 338 338 331 327 324 325 322 314 296 293 321 314 294 293 295 301 304 313 320 nan 315 nan 292 307 320 335 316 324 330 328 334 338 359 nan nan nan nan nan nan nan nan nan nan nan 302 298 293 295 293 296 294 297 313
332 340 338 341 345 342 333 323 317 317 323 330 321 331 337 331 353 5 47 79 40 11 34 5 349 339 326 328 330 326 323 321 315 317 313 317 316 316 312 305 304 301 290 290 289 291 294 294 305 306 307 315 321 309 308 309 314 304 304 nan 321 340 338 348 349 nan nan nan nan nan nan nan nan nan nan nan nan nan nan 285 288 290 289 291 296
324 327 330 335 321 318 319 319 311 312 307 317 320 334 336 321 336 4 68 115 210 273 289 271 290 306 318 317 311 310 309 304 302 299 302 305 312 310 305 304 298 289 285 283 286 289 288 296 304 305 299 305 nan 317 314 312 301 297 304 305 332 338 nan 337 344 nan nan nan nan nan nan nan nan nan nan nan nan nan nan nan 296 295 293 290 285
331 326 325 320 301 323 318 317 302 305 298 306 319 317 311 310 287 288 296 247 252 263 281 288 295 295 299 304 305 305 300 298 299 302 301 299 299 302 300 295 293 291 284 283 282 290 295 300 301 296 308 301 nan nan 305 303 298 288 297 316 312 326 297 317 nan nan nan nan nan nan nan nan nan nan nan nan nan nan nan nan nan 306 306 301 295
330 323 323 327 322 314 314 308 291 285 295 307 313 300 294 285 287 286 308 306 301 296 297 298 299 302 302 299 303 301 297 296 296 297 300 299 299 298 295 292 293 290 287 281 280 284 293 297 302 307 305 304 297 295 nan nan 295 296 301 303 302 nan 307 308 nan 314 318 nan nan nan nan nan nan nan nan nan nan nan nan nan nan nan nan nan nan
322 316 322 328 326 315 311 306 291 278 282 291 305 287 289 277 301 304 295 294 288 289 291 295 297 300 301 303 299 302 300 300 300 300 300 299 295 291 292 292 292 291 288 284 287 295 301 303 296 300 295 286 294 298 nan nan 291 nan nan 300 295 304 299 306 301 310 nan 315 nan nan nan nan nan nan nan nan nan nan nan nan nan nan nan nan nan
313 315 323 322 320 316 311 308 294 286 274 272 290 284 277 278 283 285 282 285 293 292 299 300 302 298 300 300 297 294 297 298 298 298 298 296 293 290 292 292 290 290 289 288 286 290 280 283 287 287 286 286 288 286 287 276 nan 293 285 288 302 295 292 302 298 nan 304 nan 317 nan nan nan nan nan nan nan nan nan nan nan nan nan nan nan nan
313 313 314 307 306 309 307 307 306 298 286 291 283 292 282 281 284 283 282 281 292 298 301 303 303 301 298 294 292 294 295 296 294 296 299 300 297 296 296 294 292 290 287 288 292 292 285 283 285 280 280 282 281 280 277 280 nan nan 286 290 284 297 305 nan 301 nan nan nan nan nan nan nan nan nan nan nan nan nan nan nan nan nan nan nan nan
313 309 305 297 298 299 305 307 308 297 292 298 294 299 302 288 289 292 298 296 296 299 302 301 300 296 298 299 297 296 297 300 301 301 303 308 308 306 303 301 296 292 288 287 284 280 282 283 282 281 279 274 274 277 283 281 283 271 284 286 290 281 nan nan nan nan nan nan nan nan nan nan nan nan nan nan nan nan nan nan nan nan nan nan nan
309 309 303 297 295 297 302 304 302 294 299 302 305 305 301 298 293 297 304 307 309 305 302 300 297 299 300 304 305 304 302 299 299 300 307 316 321 317 313 309 303 299 293 285 279 280 292 292 288 289 284 282 281 282 279 281 277 276 281 285 284 nan nan nan nan nan nan nan nan nan nan nan nan nan nan nan nan nan nan nan nan nan nan nan nan